HST
1 20580U 90037B   24363.63619758  .00011342  00000-0  47360-3 0  9991
2 20580  28.4679 118.3726 0002458  24.9503 335.1209 15.22020501706906
ISS (ZARYA)
1 25544U 98067A   24364.46140046  .00025679  00000-0  44965-3 0  9994
2 25544  51.6390  67.8566 0005707  20.6638 164.3696 15.50414415488834
CXO
1 25867U 99040B   24366.19299662  .00000642  00000-0  00000-0 0  9997
2 25867  45.6674 138.8374 8661043 305.7101   0.2908  0.37802720 15319